Federico Moretti

Olheiro - Racing Club
17 Jul 2027
Sábado
Processo

Personalidade

Adaptabilidade (13) Ambição (16) Controvérsia (8) Lealdade (10) Pressão (16) Profissionalismo (18) Espírito Esportivo (9) Temperamento (9)

Perfil

Estilo de Treinamento Democrático
Licença Continental Pro
Determinação 5
Gestão de Pessoas 13
Motivação 11
Disciplina 9
Satisfação no Trabalho
88%
Fadiga
0%
Função Olheiro
Salário 99.6K p/s
Contrato 14.03.2029

Desempenho

Comportamento Bom
Eficácia do Treinamento
36%
Desenvolvimento do Jogador
65%
Prevenção de Lesões
65%
Implementação Tática
25%

Eventos Recentes

Participou de uma reunião de recrutamento agora
Recomendou um alvo de transferência agora
Participou de uma reunião de recrutamento 7d atrás
Recomendou um alvo de transferência 7d atrás
Participou de uma reunião de recrutamento 7d atrás
Participou de uma reunião de recrutamento 7d atrás
Participou de uma reunião de recrutamento 14d atrás
Participou de uma reunião de recrutamento 14d atrás

Monitorando agora

94
Jogador Clube Status Habilidade Confiança Observado Última observação Último voto
Alan Velasco Boca Juniors Ativo 142 / 131 58% 1 14.06.2027 Aprovar
Shea Charles Southampton Ativo 146 / 130 40% 2 31.05.2027 Mais informações
Max Bird Birmingham Ativo 118 / 139 40% 1 31.05.2027 -
Assane Diao Como Ativo 158 / 163 40% 5 30.05.2027 -
Isaiah Jones Luton Town Ativo 111 / 134 40% 1 30.05.2027 -
Julio Enciso Ipswich Town Ativo 141 / 141 40% 2 23.05.2027 -
Brennan Johnson Everton Ativo 154 / 158 40% 4 23.05.2027 -
Loum Tchaouna Coventry City Ativo 131 / 150 40% 1 12.05.2027 -
Pablo Solari Spartak Moscow Ativo 133 / 114 40% 2 10.05.2027 -
Thiago Almada Fiorentina Ativo 166 / 157 40% 3 06.05.2027 -
Ronald Swansea City Ativo 126 / 140 40% 1 06.05.2027 -
Helinho Toluca Ativo 151 / 120 40% 4 29.04.2027 -
Kevin Schade Brentford Ativo 145 / 148 40% 2 23.04.2027 -
Ramón Terrats Getafe Ativo 127 / 138 40% 5 19.04.2027 -
Matías Soulé AS Roma Ativo 163 / 142 40% 6 12.04.2027 -
Kevin Fulham Ativo 140 / 163 40% 3 12.04.2027 Observar
Enzo Barrenechea Burnley Ativo 141 / 138 40% 2 07.04.2027 -
Mikkel Damsgaard Brentford Ativo 139 / 154 40% 1 07.04.2027 Mais informações
Dango Ouattara Brentford Ativo 161 / 144 40% 2 07.03.2027 -
Gerónimo Rivera Al Wahda Ativo 143 / 139 40% 3 04.03.2027 -
Yankuba Minteh Brighton Ativo 143 / 139 40% 1 02.03.2027 -
Carlos Alcaraz Everton Ativo 136 / 148 40% 2 24.02.2027 -
Khvicha Kvaratskhelia Inter Ativo 158 / 180 40% 2 19.02.2027 -
Zeidane Inoussa Swansea City Ativo 119 / 117 40% 1 28.01.2027 -
Alex Luna Instituto Ativo 133 / 137 40% 3 26.01.2027 -
Milson Al Jazira Ativo 131 / 127 40% 1 26.01.2027 -
Jeon Jin-Woo Sheffield Wednesday Ativo 142 / 124 40% 2 22.01.2027 -
Hélio Varela Maccabi Tel Aviv Ativo 138 / 115 40% 1 22.01.2027 -
Santiago Pierotti Lecce Ativo 131 / 135 40% 2 14.01.2027 -
Serginho Al Wasl Ativo 136 / 140 40% 1 09.01.2027 -
Jack Rudoni Coventry City Ativo 137 / 137 40% 1 07.01.2027 -
Mateusz Kochalski Qarabag Ativo 137 / 137 40% 1 29.11.2026 -
Jacob Greaves Ipswich Town Ativo 123 / 121 40% 1 28.11.2026 -
Ammar Ramadan DAC Dunajska Streda Ativo 121 / 134 40% 1 25.11.2026 -
Mike Maignan AC Milan Ativo 178 / 174 40% 2 20.11.2026 -
Sergej Milinković-Savić Al-Hilal Ativo 154 / 159 40% 1 20.11.2026 -
Leandro Trossard Besiktas Perdido 147 / 161 40% 8 17.11.2026 -
Fábio Carvalho Brentford Ativo 150 / 122 40% 1 17.11.2026 -
Nahitan Nández Al-Qadisiyah Ativo 132 / 152 40% 1 17.11.2026 -
Stephen Eustáquio Swansea City Ativo 118 / 123 40% 1 16.11.2026 -
Tyrell Malacia Derby County Ativo 138 / 117 40% 1 13.11.2026 Mais informações
Nahuel Molina AS Roma Ativo 139 / 150 40% 1 13.11.2026 -
Christian Krasnodar Ativo 146 / 147 40% 1 12.11.2026 -
Tijjani Reijnders Al-Qadisiyah Ativo 167 / 170 40% 1 12.11.2026 -
Marc Pubill Atlético Madrid Ativo 129 / 139 40% 2 10.11.2026 -
Bobby Thomas Coventry City Ativo 134 / 136 40% 1 10.11.2026 -
Ricardo Pepi Napoli Ativo 125 / 136 40% 4 09.11.2026 -
Robin Roefs Sunderland Ativo 129 / 155 40% 2 09.11.2026 -
Iván Angulo Orlando City Ativo 127 / 131 40% 1 06.11.2026 -
Tomás Chancalay Minnesota United FC Ativo 140 / 135 40% 1 06.11.2026 -
Carlos Palacios Boca Juniors Ativo 120 / 132 40% 1 02.11.2026 -
Esequiel Barco Spartak Moscow Ativo 152 / 143 40% 1 01.11.2026 -
Taty Castellanos West Ham United Ativo 132 / 146 40% 1 31.10.2026 Mais informações
Tomás Galván River Plate Ativo 127 / 137 40% 1 30.10.2026 -
Luka Jović AEK Ativo 126 / 152 40% 1 29.10.2026 -
Rumarn Burrell Queens Park Rangers Ativo 118 / 116 40% 1 28.10.2026 -
Alex Meret Napoli Ativo 150 / 162 40% 1 25.10.2026 -
John Victor Nottingham Forest Ativo 135 / 148 40% 1 22.10.2026 -
Carl Rushworth Coventry City Ativo 145 / 149 40% 1 22.10.2026 -
Vanja Milinković-Savić Napoli Ativo 137 / 134 40% 2 21.10.2026 -
Mark Travers Everton Ativo 136 / 122 40% 1 21.10.2026 -
James Trafford Leeds United Ativo 131 / 153 40% 1 20.10.2026 -
Senne Lammens Manchester United Ativo 142 / 155 40% 3 19.10.2026 -
Zack Steffen Colorado Rapids Ativo 139 / 123 40% 1 17.10.2026 -
Tomoki Hayakawa Kashima Antlers Ativo 133 / 140 40% 1 17.10.2026 -
Alexander Nübel Besiktas Ativo 142 / 130 40% 4 14.10.2026 -
Radek Vítek Middlesbrough Ativo 142 / 122 40% 1 14.10.2026 -
Joaquín Pereyra Minnesota United FC Ativo 137 / 120 40% 1 14.10.2026 -
Valentín Barco Chelsea Ativo 133 / 156 40% 1 14.10.2026 -
Michael Zetterer Leeds United Ativo 132 / 151 40% 2 11.10.2026 -
Mads Hermansen West Ham United Ativo 146 / 125 40% 1 11.10.2026 -
Alan Lescano Argentinos Juniors Ativo 118 / 120 40% 1 08.10.2026 -
Breel Embolo Atlanta United FC Ativo 128 / 122 40% 1 07.10.2026 -
Nicolás Domínguez Nottingham Forest Ativo 157 / 154 40% 1 06.10.2026 -
Taiwo Awoniyi Coventry City Ativo 129 / 136 40% 1 03.10.2026 -
Marvin Keller Racing Genk Ativo 125 / 133 40% 1 02.10.2026 -
Kevin Álvarez Club America Ativo 150 / 120 40% 2 30.09.2026 -
Diego Gómez Brighton Ativo 147 / 129 40% 1 28.09.2026 -
Brooke Norton-Cuffy Hull City Ativo 123 / 126 40% 1 28.09.2026 -
Willer Ditta Cruz Azul Ativo 120 / 137 40% 2 25.09.2026 -
Tomáš Chorý Spartak Moscow Ativo 125 / 145 40% 4 22.09.2026 -
Evander FC Cincinnati Ativo 151 / 147 40% 1 19.09.2026 -
Aníbal Moreno River Plate Ativo 125 / 140 40% 1 18.09.2026 -
Wendel Zenit Ativo 146 / 148 40% 1 15.09.2026 -
Diego Costa Krasnodar Ativo 121 / 140 40% 1 09.09.2026 -
Álvaro Fernández Deportivo La Coruña Ativo 133 / 133 40% 1 06.09.2026 -
Ivan Toney Al-Ahli Ativo 132 / 162 40% 1 01.09.2026 -
Bento Lokomotiv Moscow Ativo 122 / 136 40% 1 31.08.2026 -
Matěj Kovář PSV Ativo 123 / 126 40% 2 08.08.2026 -
Nick Olij PSV Ativo 133 / 114 40% 1 07.08.2026 -
Kepa Arrizabalaga Arsenal Ativo 137 / 147 40% 1 05.08.2026 -
Kostantis Tzolakis Hull City Ativo 154 / 129 40% 1 05.08.2026 -
Steven Bergwijn Al-Ittihad Ativo 156 / 143 40% 1 04.08.2026 -
Gonzalo Fulham Ativo 141 / 140 40% 1 04.08.2026 -